To NAV CANADA Home Page Login to a new session Search on AWWS site Feedback and Comments Disclaimer Vers la page française équivalente Tips FAQ What's new on the site To the Forecasts and Observations / NOTAM section To "File a Flight Plan" website Publications and other links Update of the User's profile FIC Telephone Numbers My Weather Data Folder Route Weather Data Regional Weather Data Local Weather Data To the Forecasts and Observations / NOTAM section
Request Generated 02/08/2016 at 01:36:26 UTC . Weather information available at that time is displayed.

METAR/TAF

HOPE/BC    (show WxCam)

METAR CYHE 080100Z AUTO 09005KT 050V120 9SM OVC070 08/03 A3060 RMK
SLP367=
METAR CYHE 080000Z AUTO 09007KT 9SM BKN060 08/03 A3060 RMK SLP367=
METAR CYHE 072300Z AUTO 07003KT 9SM OVC060 08/03 A3061 RMK SLP367=

CYHE - No TAF is issued for this station

Your time UTC time
Weather data provided by Environment Canada and NAV CANADA